St. Paul, MN

7:05 PM CDT on March 29, 2017 (GMT -0500)
Saint Paul Downtown-Holman

Weather History for KSTP - February, 2015

Change the Weather History Date:

Tuesday, February 3, 2015

  Actual Average Record
Temperature  
Mean Temperature 12 °F -  
Max Temperature 17 °F 26 °F 48 °F (2005)
Min Temperature 7 °F 11 °F -9 °F (2004)
Degree Days  
Heating Degree Days 53    
Moisture  
Dew Point 9 °F    
Average Humidity 82    
Maximum Humidity 91    
Minimum Humidity 65    
Precipitation  
Precipitation 0.02 in - - ()
Sea Level Pressure  
Sea Level Pressure 30.08 in    
Wind  
Wind Speed 1 mph (NNW)    
Max Wind Speed 7 mph    
Max Gust Speed -    
Visibility 6 miles    
Events Fog , Snow    
Averages and records for this station are not official NWS values.
T = Trace of Precipitation, MM = Missing Value Source: NWS Daily Summary

Daily Weather History Graph

Daily Weather History Graph

Search for Another Location

Airport or City:

Trip Planner

Search our weather history database for the weather conditions in past years. The results will help you decide how hot, cold, wet, or windy it might be!

Date:

Astronomy

Feb. 03, 2015 Rise Set
Actual Time 7:29 AM CST 5:22 PM CST
Civil Twilight 6:58 AM CST 5:54 PM CST
Nautical Twilight 6:23 AM CST 6:29 PM CST
Astronomical Twilight 5:49 AM CST 7:03 PM CST
Moon 5:31 PM CST (2/3) 6:56 AM CST (2/3)
Length of Visible Light 10h 55m
Length of Day
9h 53m
Full, 100% of the Moon is Illuminated
Feb 3
Full
Feb 3
Full
Feb 11
Last Quarter
Feb 18
New
Feb 25
First Quarter

Hourly Weather History & Observations

Time (CST) Temp. Windchill Dew Point Humidity Pressure Visibility Wind Dir Wind Speed Gust Speed Precip Events Conditions
12:53 AM 8.1 °F 1.4 °F 1.9 °F 76% 30.09 in 10.0 mi South 3.5 mph - N/A   Clear
1:53 AM 7.0 °F - 1.9 °F 80% 30.10 in 10.0 mi Calm Calm - N/A   Clear
2:53 AM 7.0 °F - 1.9 °F 80% 30.10 in 10.0 mi Calm Calm - N/A   Clear
3:53 AM 7.0 °F - 1.9 °F 80% 30.09 in 10.0 mi Calm Calm - N/A   Clear
4:53 AM 7.0 °F - 3.0 °F 84% 30.09 in 10.0 mi Calm Calm - N/A   Clear
5:53 AM 7.0 °F - 3.0 °F 84% 30.09 in 10.0 mi Calm Calm - N/A   Clear
6:53 AM 7.0 °F - 3.0 °F 84% 30.12 in 10.0 mi Calm Calm - N/A   Clear
7:53 AM 8.6 °F - 3.2 °F 79% 30.09 in 10.0 mi Calm Calm - N/A   Partly Cloudy
8:53 AM 10.0 °F - 5.0 °F 80% 30.12 in 10.0 mi Calm Calm - N/A   Mostly Cloudy
9:53 AM 12.0 °F 5.9 °F 7.0 °F 80% 30.12 in 10.0 mi SSE 3.5 mph - N/A   Overcast
10:53 AM 12.9 °F 3.8 °F 7.0 °F 77% 30.09 in 10.0 mi SE 5.8 mph - N/A   Overcast
11:53 AM 16.0 °F 8.8 °F 6.1 °F 65% 30.09 in 10.0 mi South 4.6 mph - N/A   Overcast
12:53 PM 16.0 °F - 6.1 °F 65% 30.09 in 10.0 mi Calm Calm - N/A   Overcast
1:41 PM 17.1 °F - 7.0 °F 65% 30.04 in 2.5 mi Calm Calm - 0.00 in Snow Light Snow
1:47 PM 15.8 °F - 6.8 °F 68% 30.05 in 1.2 mi Calm Calm - 0.00 in Snow Light Snow
1:53 PM 16.0 °F - 8.1 °F 71% 30.08 in 1.0 mi Calm Calm - 0.00 in Snow Light Snow
2:15 PM 16.0 °F - 10.9 °F 81% 30.05 in 0.8 mi Calm Calm - 0.00 in Snow Light Snow
2:25 PM 16.0 °F - 10.9 °F 81% 30.05 in 0.8 mi Calm Calm - 0.00 in Snow Light Snow
2:35 PM 16.0 °F - 12.0 °F 84% 30.06 in 1.0 mi Calm Calm - 0.00 in Snow Light Snow
2:53 PM 16.0 °F - 12.0 °F 84% 30.10 in 0.8 mi Calm Calm - 0.00 in Snow Light Snow
3:09 PM 16.0 °F - 12.0 °F 84% 30.06 in 1.0 mi Calm Calm - 0.01 in Snow Light Snow
3:19 PM 16.0 °F - 12.0 °F 84% 30.05 in 0.8 mi Calm Calm - 0.01 in Snow Light Snow
3:53 PM 15.8 °F - 12.2 °F 86% 30.05 in 0.8 mi Calm Calm - N/A Snow Light Snow
4:07 PM 17.1 °F - 12.9 °F 84% 30.05 in 0.5 mi Calm Calm - 0.01 in Fog , Snow Snow
4:41 PM 16.0 °F - 12.0 °F 84% 30.05 in 1.0 mi Calm Calm - 0.02 in Snow Light Snow
4:50 PM 15.8 °F - 12.2 °F 86% 30.05 in 1.5 mi Calm Calm - 0.02 in Snow Light Snow
4:53 PM 16.0 °F - 12.9 °F 88% 30.09 in 1.8 mi Calm Calm - 0.02 in Snow Light Snow
5:01 PM 16.0 °F - 12.9 °F 88% 30.05 in 2.5 mi Calm Calm - 0.00 in Snow Light Snow
5:08 PM 16.0 °F - 12.0 °F 84% 30.04 in 3.0 mi Calm Calm - 0.00 in Snow Light Snow
5:26 PM 15.1 °F - 12.0 °F 88% 30.05 in 2.5 mi Calm Calm - 0.00 in Snow Light Snow
5:35 PM 15.1 °F - 12.0 °F 88% 30.05 in 4.0 mi Calm Calm - 0.00 in Snow Light Snow
5:53 PM 15.1 °F - 12.9 °F 91% 30.11 in 6.0 mi Calm Calm - 0.00 in Snow Light Snow
6:09 PM 16.0 °F - 12.0 °F 84% 30.06 in 8.0 mi Calm Calm - 0.00 in   Overcast
6:24 PM 15.1 °F - 12.0 °F 88% 30.06 in 8.0 mi Calm Calm - 0.00 in   Overcast
6:42 PM 15.1 °F 7.7 °F 12.0 °F 88% 30.07 in 9.0 mi NNW 4.6 mph - 0.00 in   Overcast
6:53 PM 15.1 °F 6.4 °F 10.0 °F 80% 30.12 in 10.0 mi NNW 5.8 mph - 0.00 in   Overcast
7:17 PM 15.1 °F 6.4 °F 10.9 °F 84% 30.07 in 4.0 mi North 5.8 mph - 0.00 in Snow Light Snow
7:25 PM 14.0 °F 6.5 °F 10.9 °F 88% 30.08 in 5.0 mi NNW 4.6 mph - 0.00 in Snow Light Snow
7:53 PM 12.9 °F 5.2 °F 9.0 °F 84% 30.13 in 10.0 mi North 4.6 mph - 0.00 in   Mostly Cloudy
8:08 PM 12.0 °F 4.1 °F 9.0 °F 88% 30.09 in 10.0 mi NNW 4.6 mph - N/A   Mostly Cloudy
8:53 PM 15.1 °F - 10.9 °F 84% 30.12 in 9.0 mi Calm Calm - 0.00 in   Overcast
9:53 PM 14.0 °F 3.9 °F 10.9 °F 88% 30.13 in 10.0 mi North 6.9 mph - N/A   Overcast
10:53 PM 14.0 °F 5.1 °F 10.0 °F 84% 30.13 in 7.0 mi NNW 5.8 mph - 0.00 in Snow Light Snow
11:53 PM 14.0 °F 3.9 °F 10.0 °F 84% 30.14 in 8.0 mi NNW 6.9 mph - 0.00 in   Overcast